Page, AZ

10:24 PM MST on February 21, 2017 (GMT -0700)
Page Municipal

Weather History for KPGA - July, 2014

Change the Weather History Date:

Tuesday, July 22, 2014

  Actual Average Record
Temperature  
Mean Temperature 88 °F -  
Max Temperature 104 °F 94 °F 104 °F (2003)
Min Temperature 71 °F 69 °F 60 °F (1973)
Cooling Degree Days 22    
Growing Degree Days 38 (Base 50)    
Moisture  
Dew Point 30 °F    
Average Humidity 11    
Maximum Humidity 19    
Minimum Humidity 4    
Precipitation  
Precipitation 0.00 in - - ()
Sea Level Pressure  
Sea Level Pressure 29.94 in    
Wind  
Wind Speed 4 mph (SE)    
Max Wind Speed 9 mph    
Max Gust Speed -    
Visibility 10 miles    
Events      
Averages and records for this station are not official NWS values.
T = Trace of Precipitation, MM = Missing Value Source: NWS Daily Summary

Daily Weather History Graph

Daily Weather History Graph

Search for Another Location

Airport or City:

Trip Planner

Search our weather history database for the weather conditions in past years. The results will help you decide how hot, cold, wet, or windy it might be!

Date:

Astronomy

Jul. 22, 2014 Rise Set
Actual Time 5:23 AM MST 7:40 PM MST
Civil Twilight 4:53 AM MST 8:10 PM MST
Nautical Twilight 4:17 AM MST 8:46 PM MST
Astronomical Twilight 3:38 AM MST 9:25 PM MST
Moon 1:58 AM MST 4:22 PM MST
Length of Visible Light 15h 16m
Length of Day
14h 17m
Waning Crescent, 15% of the Moon is Illuminated
Jul 22
Waning Crescent
Jul 26
New
Aug 3
First Quarter
Aug 10
Full
Aug 17
Last Quarter

Hourly Weather History & Observations

Time (MST) Temp. Dew Point Humidity Pressure Visibility Wind Dir Wind Speed Gust Speed Precip Events Conditions
12:53 AM 80.1 °F 28.9 °F 15% 29.92 in 10.0 mi Calm Calm - N/A   Clear
1:53 AM 77.0 °F 30.9 °F 19% 29.93 in 10.0 mi Calm Calm - N/A   Clear
2:53 AM 75.9 °F 27.0 °F 16% 29.94 in 10.0 mi South 3.5 mph - N/A   Clear
3:53 AM 73.9 °F 26.1 °F 17% 29.95 in 10.0 mi SE 6.9 mph - N/A   Clear
4:53 AM 72.0 °F 27.0 °F 19% 29.97 in 10.0 mi SE 3.5 mph - N/A   Clear
5:53 AM 71.1 °F 27.0 °F 19% 29.99 in 10.0 mi SE 3.5 mph - N/A   Clear
6:53 AM 80.6 °F 26.6 °F 14% 30.22 in 10.0 mi East 3.5 mph - N/A   Clear
7:53 AM 82.0 °F 27.0 °F 13% 30.01 in 10.0 mi Variable 6.9 mph - N/A   Clear
8:53 AM 86.0 °F 28.9 °F 13% 30.01 in 10.0 mi Variable 3.5 mph - N/A   Clear
10:53 AM 93.0 °F 27.0 °F 9% 29.99 in 10.0 mi Variable 4.6 mph - N/A   Clear
11:53 AM 96.1 °F 24.1 °F 8% 29.97 in 10.0 mi Variable 3.5 mph - N/A   Clear
12:53 PM 99.0 °F 27.0 °F 8% 29.95 in 10.0 mi ENE 3.5 mph - N/A   Clear
1:53 PM 100.9 °F 30.9 °F 9% 29.93 in 10.0 mi NNW 6.9 mph - N/A   Clear
2:53 PM 102.9 °F 30.9 °F 8% 29.90 in 10.0 mi NNW 9.2 mph - N/A   Clear
3:53 PM 102.0 °F 30.9 °F 8% 29.88 in 10.0 mi Variable 3.5 mph - N/A   Clear
4:53 PM 102.0 °F 30.9 °F 8% 29.87 in 10.0 mi NNE 5.8 mph - N/A   Clear
5:53 PM 100.9 °F 30.9 °F 9% 29.86 in 10.0 mi NE 6.9 mph - N/A   Clear
6:53 PM 100.4 °F 32.0 °F 9% 30.09 in 10.0 mi ESE 3.5 mph - N/A   Clear
7:53 PM 97.0 °F 34.0 °F 11% 29.86 in 10.0 mi SSW 5.8 mph - N/A   Clear
8:53 PM 95.0 °F 34.0 °F 12% 29.87 in 10.0 mi SSW 5.8 mph - N/A   Clear
9:53 PM 93.0 °F 33.1 °F 12% 29.88 in 10.0 mi SSW 6.9 mph - N/A   Clear
10:53 PM 91.9 °F 34.0 °F 13% 29.88 in 10.0 mi SSW 8.1 mph - N/A   Clear
11:53 PM 90.0 °F 34.0 °F 14% 29.89 in 10.0 mi Calm Calm - N/A   Clear